Weather in Ordjonikidze

Russia / Republic of Crimea     44°57′49″N   35°21′28″E
temp.,
°C
wind,
m/s
gust,
m/s
humid.,
%
clouds,
%
prec.,
mm/h
press.,
hPa
HPBL,
m
28 july, wed
wed2800:00+22ese12681 0.0 1019103
03:00+21ese12660 0.0 101979
06:00+21ne01590 0.0 101846
09:00+25ese324621 0.0 1018444
12:00+28se43400 0.0 10181032
15:00+29sse43380 0.0 1017993
18:00+29ssw33390 0.0 10161044
21:00+24wsw22500 0.0 101625
29 july, thu
thu2900:00+24nw23564 0.0 101538
03:00+22nw33620 0.0 101547
06:00+22nnw34610 0.0 101568
09:00+28n33410 0.0 1014526
12:00+31se43320 0.0 10141404
15:00+31sse43310 0.0 10131107
18:00+30ssw54350 0.0 1012738
21:00+25wsw33420 0.0 101229
30 july, fri
fri3000:00+25nw36500 0.0 1012104
03:00+24nw22480 0.0 101129
06:00+23w01490 0.0 101113
09:00+29ssw12370 0.0 1011620
12:00+31s54385 0.0 10101401
15:00+31s564166 0.0 1010980
18:00+29ssw454634 0.2 1009981
21:00+25wnw23612 0.6 101062
31 july, sat
sat3100:00+24wnw336229 0.0 100947
03:00+24nw33670 0.0 101053
06:00+22nw34720 0.0 1010103
09:00+28n34580 0.0 1010575
12:00+30e434811 0.0 10101461
15:00+30ese234956 0.0 10101251
18:00+28sse125369 0.0 1010557
21:00+26sw01610 0.0 101011
1 august, sun
sun100:00+25w11650 0.0 101011
03:00+24nnw22690 0.0 101013
06:00+24nw22710 0.0 101118
09:00+29ene11480 0.0 1011635
12:00+31sse33391 0.0 10101894
15:00+31s324160 0.0 10101507
18:00+31se02390 0.0 10101173
21:00+27wsw22500 0.0 101016